CAPE
771 1085 1322 1636 1782 1855 1774 1700 1531 1263 1224 1325 1406 1417 1388 1337 1273 1284 1287 1181 1159 1102 1094 1441 1366 1127 883 801 707 447 288 182 113 118 216 95 191 385 524 787 809 659 423
888 1242 1369 1651 1744 1958 1813 1778 1789 1808 1667 1499 1345 1321 1349 1339 1238 1165 1160 1150 1124 1188 978 853 694 578 547 388 222 115 46 6 1 0 0 27 98 391 640 189 722 575 590
1166 1293 1327 1615 1756 1804 1901 1872 1908 1917 1858 1753 1633 1522 1459 1312 1284 1261 1079 1092 982 869 743 676 570 437 270 122 48 0 0 0 0 0 0 0 37 528 480 340 450 585 465
1267 1254 1248 1613 1808 1753 1763 1865 1952 1909 1835 1698 1579 1462 1257 1250 1271 1166 926 791 741 637 547 391 225 75 8 0 0 0 0 0 0 0 0 0 0 109 755 601 170 311 406
1273 1242 1368 1666 1765 1800 1764 1851 1867 1773 1661 1464 1203 1180 1061 1011 922 736 558 485 434 351 177 21 0 0 0 0 0 0 0 0 0 0 0 0 0 81 555 522 145 167 312
1056 1311 1355 1482 1716 1801 1809 1796 1705 1539 1314 1156 1095 1020 825 765 635 419 295 203 46 0 0 0 0 0 0 0 0 0 0 0 0 0 0 0 392 820 591 579 328 284 319
987 1277 1349 1364 1446 1695 1667 1610 1458 1249 1088 1062 914 759 609 432 273 136 36 0 0 0 0 0 0 0 0 0 0 0 0 0 0 0 0 117 789 982 875 565 385 299 249
1043 1132 1269 1307 1245 1226 1310 1175 1017 911 841 710 539 391 200 37 1 0 0 0 0 0 0 0 0 0 0 0 0 0 0 0 0 0 0 0 0 26 18 0 0 0 0
920 1052 998 1004 1018 961 838 814 722 615 521 378 204 17 0 0 0 0 0 0 0 0 0 0 0 0 0 0 0 0 0 0 0 0 0 0 0 0 0 0 0 0 0
601 653 640 634 517 486 500 520 444 324 190 32 0 0 0 0 0 0 0 0 0 0 0 0 0 0 0 0 0 0 0 0 0 0 0 0 0 0 0 0 0 0 0
239 171 151 138 106 107 84 94 39 11 0 0 0 0 0 0 0 0 0 0 0 0 0 0 0 0 0 0 0 0 0 0 0 0 0 0 0 0 0 0 0 0 1
167 13 0 2 0 0 0 0 0 0 0 0 0 0 0 0 0 0 0 0 0 0 0 0 0 0 0 0 0 0 0 0 0 0 0 2 5 9 8 21 20 14 11
63 0 0 0 0 0 0 0 0 0 0 0 0 0 0 0 0 0 0 0 0 0 0 0 0 0 0 0 0 0 0 0 0 1 2 15 32 48 35 31 23 17 11
1 0 0 0 0 0 0 0 0 0 0 0 0 0 0 0 0 0 0 0 0 0 0 0 0 0 0 0 0 0 0 0 1 1 0 0 1 9 23 29 23 21 14
0 0 0 0 0 0 0 0 0 0 0 0 0 0 0 0 0 0 0 0 0 0 0 0 0 0 0 0 0 0 0 0 0 0 0 1 0 3 11 18 17 17 11
0 0 0 0 0 0 0 0 0 0 0 0 0 0 0 0 0 0 0 0 0 0 0 0 0 0 0 0 0 0 0 0 0 0 0 0 1 2 3 16 11 5 16
0 0 0 0 0 0 0 0 0 0 0 0 0 0 0 0 0 0 0 0 0 0 0 0 0 0 0 0 0 0 0 0 0 0 0 0 0 0 0 1 1 9 8
0 0 0 0 0 0 0 0 0 0 0 0 0 0 0 0 0 0 0 0 0 0 0 0 0 0 0 0 0 0 0 0 0 0 0 0 0 0 0 4 1 1 1
1 0 0 0 0 0 0 0 0 0 0 0 0 0 0 0 0 0 0 0 0 0 0 0 0 0 0 0 0 0 0 0 0 0 0 0 0 0 0 1 1 1 2
0 0 0 0 0 0 0 0 0 0 0 0 0 0 0 0 0 0 0 0 0 0 0 0 0 0 0 0 0 0 0 0 0 0 0 0 0 0 0 0 0 0 1
0 0 0 0 0 0 0 0 0 0 0 0 0 0 0 0 0 0 0 0 0 0 0 0 0 0 0 0 0 0 0 0 0 0 0 0 0 0 0 0 0 0 0
0 0 0 0 0 0 0 0 0 0 0 0 0 0 0 0 0 0 0 0 0 0 0 0 0 0 0 0 0 0 0 0 0 0 0 0 0 0 1 1 1 0 0
0 0 0 0 0 0 0 0 0 0 0 0 0 0 0 0 0 0 0 0 0 0 0 0 0 0 0 0 0 0 0 0 0 0 0 0 0 0 0 0 1 0 0
0 0 0 0 0 0 0 0 0 0 0 0 0 0 0 0 0 0 0 0 0 0 0 0 0 0 0 0 0 0 0 0 0 0 0 0 0 0 0 0 0 0 0
0 0 0 0 0 0 0 0 0 0 0 0 0 0 0 0 0 0 0 0 0 0 0 0 0 0 0 0 0 0 0 0 0 0 0 1 0 0 0 0 0 0 0
0 0 0 0 0 0 0 0 0 0 0 0 0 0 0 0 0 0 0 0 0 0 0 0 0 0 0 0 0 0 0 0 0 0 0 0 0 0 0 0 0 0 0
CIN
-449 -347 -293 -130 -58 -22 -25 -32 -67 -129 -142 -135 -132 -132 -128 -120 -108 -83 -59 -51 -41 -44 -42 -1 -2 -12 -38 -35 -28 -59 -94 -122 -139 -109 -63 -133 -73 -39 -29 -15 -11 -13 -19
-438 -297 -280 -165 -70 -14 -14 -19 -29 -50 -79 -108 -132 -132 -116 -105 -101 -94 -82 -66 -59 -46 -69 -84 -101 -104 -108 -129 -159 -174 -197 -81 -26 -0 -0 -155 -121 -46 -36 -49 -18 -19 -16
-367 -299 -273 -174 -95 -32 -6 -9 -17 -31 -49 -65 -81 -90 -76 -80 -84 -76 -95 -85 -90 -107 -116 -126 -138 -159 -192 -249 -261 -0 -0 -0 -0 -0 -0 -0 -179 -54 -41 -38 -24 -16 -20
-348 -311 -297 -189 -105 -60 -29 -19 -17 -22 -36 -51 -63 -73 -97 -89 -76 -83 -125 -146 -146 -152 -168 -213 -272 -353 -215 -0 -0 -0 -0 -0 -0 -0 -0 -0 -0 -136 -43 -29 -50 -23 -16
-263 -263 -215 -141 -113 -56 -43 -35 -25 -27 -30 -44 -86 -92 -120 -128 -141 -176 -209 -219 -232 -256 -332 -251 -0 -0 -0 -0 -0 -0 -0 -0 -0 -0 -0 -0 -0 -92 -33 -27 -32 -22 -14
-241 -178 -171 -120 -53 -18 -20 -21 -34 -38 -58 -73 -76 -94 -147 -162 -205 -254 -295 -337 -445 -12 -0 -0 -0 -0 -0 -0 -0 -0 -0 -0 -0 -0 -0 -0 -66 -23 -27 -19 -40 -47 -28
-212 -131 -113 -90 -69 -11 -11 -13 -24 -52 -79 -84 -94 -121 -165 -222 -300 -374 -483 -0 -0 -0 -0 -0 -0 -0 -0 -0 -0 -0 -0 -0 -0 -0 -0 -151 -8 -5 -9 -28 -41 -34 -28
-226 -136 -104 -105 -97 -68 -48 -68 -67 -87 -111 -141 -175 -214 -306 -468 -72 -0 -0 -0 -0 -0 -0 -0 -0 -0 -0 -0 -0 -0 -0 -0 -0 -0 -0 -0 -0 -56 -74 -0 -0 -0 -0
-189 -168 -171 -118 -110 -114 -101 -108 -111 -151 -174 -208 -288 -112 -0 -0 -0 -0 -0 -0 -0 -0 -0 -0 -0 -0 -0 -0 -0 -0 -0 -0 -0 -0 -0 -0 -0 -0 -0 -0 -0 -0 -0
-251 -218 -214 -243 -238 -212 -187 -157 -184 -234 -311 -414 -0 -0 -0 -0 -0 -0 -0 -0 -0 -0 -0 -0 -0 -0 -0 -0 -0 -0 -0 -0 -0 -0 -0 -0 -0 -0 -0 -0 -0 -0 -0
-360 -373 -371 -357 -391 -379 -386 -372 -445 -331 -0 -0 -0 -0 -0 -0 -0 -0 -0 -0 -0 -0 -0 -0 -0 -0 -0 -0 -0 -0 -0 -0 -0 -0 -0 -0 -0 -0 -0 -0 -0 -0 -0
-359 -425 -0 -216 -0 -0 -0 -0 -0 -0 -0 -0 -0 -0 -0 -0 -0 -0 -0 -0 -0 -0 -0 -0 -0 -0 -0 -0 -0 -0 -0 -0 -0 -0 -0 -2 -0 -0 -0 -0 -0 -0 -0
-444 -0 -0 -0 -0 -0 -0 -0 -0 -0 -0 -0 -0 -0 -0 -0 -0 -0 -0 -0 -0 -0 -0 -0 -0 -0 -0 -0 -0 -0 -0 -0 -0 -0 -5 -0 -0 -0 -0 -0 -0 -0 -2
-270 -0 -0 -0 -0 -0 -0 -0 -0 -0 -0 -0 -0 -0 -0 -0 -0 -0 -0 -0 -0 -0 -0 -0 -0 -0 -0 -0 -0 -0 -0 -0 -0 -0 -0 -0 -10 -0 -0 -0 -1 -0 -1
-0 -0 -0 -0 -0 -0 -0 -0 -0 -0 -0 -0 -0 -0 -0 -0 -0 -0 -0 -0 -0 -0 -0 -0 -0 -0 -0 -0 -0 -0 -0 -0 -0 -0 -0 -0 -0 -0 -0 -0 -0 -0 -0
-0 -0 -0 -0 -0 -0 -0 -0 -0 -0 -0 -0 -0 -0 -0 -0 -0 -0 -0 -0 -0 -0 -0 -0 -0 -0 -0 -0 -0 -0 -0 -0 -0 -0 -0 -0 -0 -0 -0 -0 -0 -0 -0
-0 -0 -0 -0 -0 -0 -0 -0 -0 -0 -0 -0 -0 -0 -0 -0 -0 -0 -0 -0 -0 -0 -0 -0 -0 -0 -0 -0 -0 -0 -0 -0 -0 -0 -0 -0 -0 -0 -0 -0 -0 -0 -0
-0 -0 -0 -0 -0 -0 -0 -0 -0 -0 -0 -0 -0 -0 -0 -0 -0 -0 -0 -0 -0 -0 -0 -0 -0 -0 -0 -0 -0 -0 -0 -0 -0 -0 -0 -0 -0 -0 -0 -0 -0 -0 -0
-0 -0 -0 -0 -0 -0 -0 -0 -0 -0 -0 -0 -0 -0 -0 -0 -0 -0 -0 -0 -0 -0 -0 -0 -0 -0 -0 -0 -0 -0 -0 -0 -0 -0 -0 -0 -0 -0 -0 -0 -0 -0 -0
-0 -0 -0 -0 -0 -0 -0 -0 -0 -0 -0 -0 -0 -0 -0 -0 -0 -0 -0 -0 -0 -0 -0 -0 -0 -0 -0 -0 -0 -0 -0 -0 -0 -0 -0 -0 -0 -0 -0 -0 -0 -0 -0
-0 -0 -0 -0 -0 -0 -0 -0 -0 -0 -0 -0 -0 -0 -0 -0 -0 -0 -0 -0 -0 -0 -0 -0 -0 -0 -0 -0 -0 -0 -0 -0 -0 -0 -0 -0 -0 -0 -0 -0 -0 -3 -0
-0 -0 -0 -0 -0 -0 -0 -0 -0 -0 -0 -0 -0 -0 -0 -0 -0 -0 -0 -0 -0 -0 -0 -0 -0 -0 -0 -0 -0 -0 -0 -0 -0 -0 -0 -0 -0 -0 -0 -0 -1 -0 -0
-0 -0 -0 -0 -0 -0 -0 -0 -0 -0 -0 -0 -0 -0 -0 -0 -0 -0 -0 -0 -0 -0 -0 -0 -0 -0 -0 -0 -0 -0 -0 -0 -0 -0 -0 -0 -0 -0 -0 -1 -4 -1 -5
-0 -0 -0 -0 -0 -0 -0 -0 -0 -0 -0 -0 -0 -0 -0 -0 -0 -0 -0 -0 -0 -0 -0 -0 -0 -0 -0 -0 -0 -0 -0 -0 -0 -0 -0 -0 -0 -0 -0 -0 -0 -0 -0
-0 -0 -0 -0 -0 -0 -0 -0 -0 -0 -0 -0 -0 -0 -0 -0 -0 -0 -0 -0 -0 -0 -0 -0 -0 -0 -0 -0 -0 -0 -0 -0 -0 -0 -0 -0 -0 -0 -0 -0 -0 -0 -0
-0 -0 -0 -0 -0 -0 -0 -0 -0 -0 -0 -0 -0 -0 -0 -0 -0 -0 -0 -0 -0 -0 -0 -0 -0 -0 -0 -0 -0 -0 -0 -0 -0 -0 -0 -0 -0 -0 -0 -0 -0 -0 -0
Wind_Speed
3 7 8 8 9 11 11 11 10 11 12 12 12 12 13 13 13 13 14 15 15 16 16 17 17 18 18 19 20 21 21 21 21 21 20 19 19 19 18 18 17 18 18
4 7 8 6 7 9 10 11 10 11 11 10 10 10 10 11 12 12 13 13 14 15 16 17 17 17 18 19 20 21 21 22 22 21 21 19 19 19 17 17 17 17 17
6 6 6 6 6 8 8 8 8 8 9 8 8 8 9 9 10 10 11 12 13 14 15 16 17 17 18 19 20 21 21 22 22 21 21 20 19 20 16 16 17 17 17
4 5 6 7 6 6 7 7 6 5 6 6 6 6 6 7 7 8 10 10 12 13 14 15 16 17 18 19 20 21 22 22 22 21 21 20 20 20 18 14 16 17 18
3 0 1 3 4 4 4 5 4 3 3 4 3 3 4 5 6 7 9 10 11 12 13 15 16 17 18 19 20 21 22 23 22 21 20 20 20 20 17 14 16 18 19
3 1 2 2 2 2 2 2 2 2 2 1 2 2 3 5 6 7 8 9 10 12 13 14 16 17 17 18 20 21 22 23 22 21 20 20 20 20 16 15 17 19 19
5 3 2 1 1 2 2 1 1 1 1 1 2 4 5 6 6 7 8 9 10 11 12 13 14 16 17 18 19 21 22 21 21 21 21 20 20 19 18 17 18 18 19
6 6 5 4 2 2 3 2 2 2 1 2 4 5 6 7 7 8 9 10 10 10 11 12 14 16 17 17 19 20 21 21 21 21 21 21 20 20 19 19 19 19 19
7 6 5 3 1 2 3 3 2 2 2 3 4 5 6 7 8 8 9 10 11 12 12 13 13 15 16 17 19 19 19 20 21 21 21 21 21 20 20 20 20 20 20
5 4 3 3 2 1 2 2 1 1 2 3 5 8 6 6 7 9 9 10 12 13 14 11 14 14 16 17 18 18 19 20 20 21 21 22 21 21 21 20 21 21 22
5 3 2 2 2 2 1 3 4 4 4 4 4 5 7 8 9 9 9 10 14 15 14 13 13 14 15 16 17 18 18 19 20 21 22 22 21 22 22 22 22 23 23
3 2 3 1 1 0 2 3 5 5 6 6 6 7 7 7 8 10 11 13 13 13 13 12 13 14 15 16 16 17 18 19 20 21 22 23 22 22 22 22 22 22 23
2 2 2 2 1 2 4 4 7 8 8 8 7 7 7 9 10 11 12 13 12 12 12 12 12 14 14 15 15 17 18 19 20 21 23 24 23 23 23 23 23 24 25
5 4 3 3 3 4 5 8 7 6 7 8 9 8 9 10 11 12 12 11 10 11 11 11 12 13 13 14 15 16 18 19 20 21 22 24 25 25 25 25 25 25 26
7 6 5 4 5 5 5 5 6 8 8 8 9 10 9 10 10 9 9 10 10 11 11 11 11 12 13 13 15 16 18 19 20 21 23 24 25 25 26 26 26 26 27
9 8 7 6 6 5 4 5 7 8 9 9 10 10 10 9 8 8 8 8 10 10 11 11 11 11 12 13 15 17 18 19 21 21 22 24 25 26 26 26 26 26 27
10 9 7 7 7 7 7 7 8 9 9 10 10 12 8 7 7 7 7 8 9 9 9 10 10 10 11 13 15 17 18 20 21 22 23 23 24 25 25 26 26 27 28
10 10 8 7 6 6 6 6 7 7 8 8 8 7 7 7 5 5 7 8 8 9 9 9 8 9 11 13 15 17 19 20 21 22 23 23 23 23 25 25 26 27 28
12 11 10 8 8 7 6 7 7 7 7 9 8 8 7 7 7 6 8 8 8 9 9 9 9 9 10 13 15 17 19 20 21 22 23 23 24 24 24 24 25 27 28
13 12 12 11 10 9 7 7 9 8 8 7 7 7 7 7 6 6 7 8 7 8 9 9 8 10 10 11 14 17 19 20 21 22 22 22 23 24 24 24 24 25 27
16 14 14 13 11 10 9 8 9 10 9 9 7 6 6 7 7 8 8 9 9 9 10 9 8 8 11 10 14 17 19 20 21 21 22 22 23 24 24 24 24 25 26
17 16 15 14 13 11 10 9 9 8 10 9 8 6 4 5 5 5 6 7 7 7 8 8 9 11 11 13 16 17 19 20 20 21 21 22 23 22 23 23 24 25 26
19 19 18 17 15 12 9 8 9 9 9 11 8 7 7 5 5 4 5 6 7 7 8 9 9 11 11 15 13 17 19 20 17 18 19 21 21 22 23 23 23 25 26
21 20 19 18 17 15 13 12 12 13 11 14 9 8 7 6 4 3 5 5 6 8 9 10 9 10 11 12 14 17 17 15 18 19 17 17 19 21 22 23 24 24 25
20 20 20 19 19 16 15 14 13 13 14 10 8 4 4 4 3 2 3 4 6 8 9 9 10 10 12 11 14 14 15 16 15 16 17 15 15 19 21 22 23 23 25
18 18 19 21 21 18 17 16 15 13 12 11 9 5 3 3 3 3 3 4 5 7 9 10 11 11 11 11 12 13 13 15 14 15 16 12 13 14 17 21 23 24 25
Wind_Direction
40 119 127 112 108 113 113 109 103 98 93 90 87 85 84 82 77 70 65 61 55 52 47 37 32 22 19 17 15 15 10 2 356 349 344 347 350 347 355 360 10 7 7
94 118 126 118 106 111 115 113 108 105 100 92 86 81 77 75 72 67 63 58 52 47 37 34 24 17 17 14 11 8 6 358 350 346 344 343 341 341 344 353 358 359 359
99 114 123 124 112 110 113 113 109 104 101 95 86 80 76 73 69 67 61 50 41 37 33 31 27 17 10 8 6 5 3 357 351 344 343 339 335 330 342 352 352 354 0
82 107 124 130 124 114 117 115 108 100 96 89 84 78 71 66 56 47 46 40 33 30 29 25 23 16 10 7 6 4 2 357 351 344 339 336 334 330 333 360 355 351 350
351 4 155 151 147 140 136 123 114 102 90 88 78 67 53 46 42 37 35 26 25 23 20 16 15 7 3 3 3 3 0 356 353 346 335 333 333 329 337 2 358 348 339
18 25 167 189 191 180 167 155 131 115 95 69 44 7 16 17 21 24 23 20 16 14 13 11 8 0 0 359 359 359 359 356 357 351 342 339 340 339 354 351 337 334 333
33 48 75 130 193 213 198 199 253 330 19 15 355 327 342 353 0 3 7 7 12 10 7 8 7 4 359 357 358 359 359 1 358 352 349 348 349 358 2 355 348 344 340
68 74 81 102 104 285 283 257 261 294 327 329 314 320 329 334 343 341 351 359 6 9 7 1 11 5 355 356 357 359 4 3 359 355 354 352 352 355 355 352 349 347 342
51 82 89 74 77 304 284 276 272 286 299 305 307 315 322 322 325 3 357 0 0 2 4 352 356 350 346 351 355 359 0 1 1 357 355 355 355 353 352 352 350 347 343
19 43 47 82 77 220 265 247 260 271 300 303 298 296 321 15 357 347 351 357 356 355 354 356 345 348 349 350 356 359 1 360 359 356 354 352 355 353 351 350 348 345 341
334 343 27 45 66 112 249 280 281 285 292 304 337 343 331 332 335 339 346 349 346 343 354 0 335 347 349 353 359 2 4 0 359 355 352 353 355 354 351 347 343 341 341
308 313 310 341 18 36 283 277 287 288 290 296 305 313 323 329 329 333 335 335 337 348 356 9 2 355 354 358 1 5 5 1 359 357 354 352 351 350 351 354 355 350 346
220 267 244 277 290 272 279 274 282 285 286 291 300 304 309 315 319 324 328 330 336 344 349 354 356 352 357 359 4 6 4 3 358 357 356 357 3 4 0 357 353 348 343
230 231 241 267 270 278 277 281 279 281 285 288 293 294 300 307 313 318 323 328 335 337 346 350 350 355 0 3 9 6 1 358 357 354 351 352 351 351 350 348 349 348 345
232 243 234 248 264 265 269 266 276 285 288 291 295 297 299 304 310 318 329 325 328 331 340 344 347 352 358 4 2 3 360 357 356 355 354 354 350 348 347 346 344 343 341
249 246 248 256 266 268 245 251 268 283 289 293 296 298 300 303 308 315 323 324 328 332 334 338 345 353 359 1 360 358 356 355 355 354 351 353 356 355 353 352 349 347 343
254 249 228 254 270 275 273 275 276 280 285 292 293 292 299 306 306 312 318 323 329 333 339 343 351 0 2 2 357 358 357 357 356 355 354 352 351 355 357 355 353 350 348
246 232 231 247 242 251 255 268 275 278 285 292 293 294 296 298 305 313 315 318 326 332 336 342 350 351 350 349 350 350 351 355 356 355 355 354 354 351 351 353 353 352 350
252 245 239 242 235 248 257 270 271 276 281 289 287 285 289 292 293 300 303 314 319 321 322 323 330 339 345 347 348 348 348 349 350 353 353 353 355 355 352 352 352 352 351
251 240 243 245 243 252 258 269 276 276 284 285 284 283 279 285 290 297 305 308 318 321 320 323 330 333 336 341 346 347 348 352 354 354 353 356 357 355 353 352 351 349 350
250 243 237 239 239 240 246 255 269 265 272 280 285 285 281 279 278 285 295 299 302 306 313 319 324 328 330 339 337 344 348 352 354 355 358 358 357 358 357 357 356 353 350
237 235 232 232 229 234 235 258 270 264 281 279 283 281 278 282 280 289 298 306 312 314 318 318 317 318 320 320 322 329 324 334 348 354 357 359 359 358 360 1 360 357 354
244 235 233 234 228 229 227 249 268 275 278 279 271 271 281 281 293 305 308 310 318 319 315 314 313 313 312 320 327 326 324 322 332 344 352 358 360 1 0 358 358 357 356
256 247 239 233 232 236 230 240 236 251 252 273 266 268 264 273 281 292 308 324 333 334 327 321 319 318 321 315 324 326 331 335 327 329 344 355 360 1 2 0 358 357 356
268 254 243 235 235 234 235 241 238 253 263 258 264 243 252 271 284 301 324 338 341 342 342 338 331 323 320 317 319 325 328 332 339 332 331 339 357 0 1 359 356 355 353
274 256 242 236 239 236 238 241 243 241 246 243 250 229 202 248 272 295 320 335 343 344 343 343 340 336 330 329 330 331 333 329 328 332 333 338 345 354 358 357 353 350 349